Weather Roundup
Issued by NWS

Home | Current Version | Previous Version | Graphics & Text | Print | Product List | Glossary Off
Versions: 1 2 3 4 5 6 7 8 9 10 11 12 13 14 15 16 17 18 19 20 21 22 23 24 25 26 27 28 29 30 31 32 33 34 35 36 37 38 39 40 41 42 43 44 45 46 47 48 49 50

000
NZUS93 KARX 270710
HRRWXR

CURRENT HOURLY OBSERVATIONS ACROSS
MUCH OF THE UPPER MISSISSIPPI VALLEY
NATIONAL WEATHER SERVICE LA CROSSE WI
100 AM CST THU NOV 27 2014


...SOUTHEAST MINNESOTA...


CITY           SKY/WX    TMP DP  RH WIND       PRES   REMARKS
ROCHESTER      CLOUDY    16  11  80 NW18      30.32R WCI   0
ROCHESTER/MAYO CLOUDY    17  12  81 NW10G21   30.33S WCI   4
WINONA         FLURRIES  23  19  86 NW13G18   30.34R WCI  11
AUSTIN         CLOUDY    12  10  92 NW12      30.35R WCI  -2
ALBERT LEA     CLOUDY    12   9  85 NW9G16    30.36S WCI   0
DODGE CENTER   FLURRIES  12  10  92 NW10      30.34R WCI  -1
PRESTON        CLOUDY    19  15  84 NW14      30.30R WCI   5
OWATONNA       CLOUDY    12   3  67 NW13      30.38R WCI  -3
FARIBAULT      CLEAR      9   0  66 NW10      30.40R WCI  -6
$$

...ELSEWHERE IN MINNESOTA...


CITY           SKY/WX    TMP DP  RH WIND       PRES   REMARKS
MINNEAPOLIS    PTCLDY     8  -3  61 N14       30.43R WCI  -8
INTNL FALLS    PTCLDY   -12 -16  82 NW3       30.45S
DULUTH         CLEAR     -3  -9  75 N10       30.34R WCI -20
RED WING       CLOUDY    16   7  67 N9        30.38R WCI   4
REDWOOD FALLS  CLEAR     -1  -6  79 NW13G20   30.48R WCI -19
MANKATO        CLEAR      3  -6  66 NW14      30.42R WCI -15
WORTHINGTON    CLEAR      0  -8  71 N15       30.43S WCI -20
FAIRMONT       CLEAR      1  -6  71 NW20      30.42R WCI -20
$$

...SOUTHWEST WISCONSIN...


CITY           SKY/WX    TMP DP  RH WIND       PRES   REMARKS
LA CROSSE      CLOUDY    25  18  74 N7        30.31R WCI  17
PRAIRIE DU CHI CLOUDY    25  19  79 NW6       30.30S WCI  18
BOSCOBEL       CLOUDY    25  20  81 CALM      30.30R
LONE ROCK      CLOUDY    24  18  77 SW6       30.27R WCI  17
PLATTEVILLE    CLOUDY    23  21  91 NW9       30.26S WCI  13
FORT MC COY    CLOUDY    23  18  83 NW7       30.29S WCI  14
CAMP DOUGLAS   CLOUDY    23  23  99 NW9       30.26R WCI  13
VIROQUA        CLOUDY    22  19  88 NW12      30.25S WCI  11
WIS DELLS      CLOUDY    22  21  96 N7        30.24R WCI  14
$$

...ELSEWHERE IN WISCONSIN...


CITY           SKY/WX    TMP DP  RH WIND       PRES   REMARKS
MILWAUKEE      MOCLDY    22  16  78 NW9       30.19S WCI  12
MADISON        LGT SNOW  20  17  88 NW3       30.24R FOG
GREEN BAY      LGT SNOW  24  21  88 NW7       30.20S FOG     WCI  16
EAU CLAIRE     CLOUDY    15   7  70 N9        30.33R WCI   3
BLACK RVR FLS  FLURRIES  22  17  79 N8        30.29R WCI  13
MEDFORD        LGT SNOW  16  12  86 NW12      30.23R WCI   3
WAUSAU         CLOUDY    19  14  81 NW7       30.21R WCI  10
WIS RAPIDS     CLOUDY    21  14  74 NW12      30.25R WCI   9
MARSHFIELD     LGT SNOW  19  13  77 NW14      30.24R WCI   6
RICE LAKE      CLEAR      8   1  72 N8        30.36R WCI  -4
$$

...NORTHEAST IOWA...


CITY           SKY/WX    TMP DP  RH WIND       PRES   REMARKS
DECORAH        FLURRIES  21  18  86 NW12      30.28S WCI   9
MASON CITY     CLOUDY    11   7  84 NW15      30.39R WCI  -5
CHARLES CITY   CLOUDY    18  14  86 NW15      30.34R WCI   3
OELWEIN        CLOUDY    23  19  86 NW12      30.31R WCI  12
$$

...ELSEWHERE IN IOWA...


CITY           SKY/WX    TMP DP  RH WIND       PRES   REMARKS
DES MOINES     FLURRIES  21  16  81 N12       30.40R WCI   9
IOWA CITY      CLOUDY    26  23  88 NW9       30.33R WCI  17
FORT DODGE     CLOUDY    10   3  72 N8        30.42S WCI  -1
$$

...NORTHERN ILLINOIS...


CITY           SKY/WX    TMP DP  RH WIND       PRES   REMARKS
CHICAGO-OHARE  FLURRIES  26  21  81 NW13      30.18S WCI  15
CHICAGO-MIDWAY LGT SNOW  29  22  75 NW9       30.19S WCI  20
MOLINE         MOCLDY    25  19  78 NW7       30.29R WCI  17
ROCKFORD       CLOUDY    20  15  81 NW10      30.25R FOG     WCI   9
PEORIA         MOCLDY    24  17  74 N3        30.26R
$$

NOTE: "FAIR" INDICATES FEW OR NO CLOUDS BELOW 12,000 FEET WITH NO
SIGNIFICANT WEATHER AND/OR OBSTRUCTIONS TO VISIBILITY. WIND
SPEEDS ARE IN MILES-PER-HOUR.



USA.gov is the U.S. government's official web portal to all federal, state and local government web resources and services.